CW8504 Weather Reports


Display with metric or nautical units.
time (UTC)temp
F
wind
direction
speed
MPH
gust
MPH
rain 1hr
in
rain 24hr
in
rain mn
in
humidity
%
barometer
mb
20260901064904 57 32 0.0 0.0 0.00 0.00 0.00 59 1019.7
20260901064404 57 32 0.0 0.0 0.00 0.00 0.00 59 1019.7
20260901063904 57 32 0.0 0.0 0.00 0.00 0.00 59 1019.7
20260901062904 57 32 0.0 0.0 0.00 0.00 0.00 58 1019.8
20260901062404 57 32 0.0 0.0 0.00 0.00 0.00 58 1019.7
20260901061904 57 32 0.0 0.0 0.00 0.00 0.00 59 1019.7
20260901061404 57 32 0.0 0.0 0.00 0.00 0.00 59 1019.7
20260901060904 57 32 0.0 0.0 0.00 0.00 0.00 58 1019.6
20260901060404 58 32 0.0 0.0 0.00 0.00 0.00 57 1019.6
20260901055404 58 32 0.0 0.0 0.00 0.00 0.00 56 1019.5
20260901054904 58 32 0.0 0.0 0.00 0.00 0.00 55 1019.5
20260901052904 58 32 0.0 0.0 0.00 0.00 0.00 56 1019.5
20260901052404 58 32 0.0 0.0 0.00 0.00 0.00 56 1019.4
20260901051404 59 32 0.0 0.0 0.00 0.00 0.00 55 1019.5
20260901050904 59 32 0.0 0.0 0.00 0.00 0.00 56 1019.5
20260901050404 59 32 0.0 0.0 0.00 0.00 0.00 56 1019.5
20260901045904 59 32 0.0 0.0 0.00 0.00 0.00 56 1019.5
20260901045404 59 32 0.0 0.0 0.00 0.00 0.00 54 1019.5
20260901044904 60 32 0.0 0.0 0.00 0.00 0.00 53 1019.5
20260901044404 60 32 0.0 0.0 0.00 0.00 0.00 50 1019.5
20260901043404 60 32 0.0 0.0 0.00 0.00 0.00 51 1019.4
20260901042904 60 32 0.0 0.0 0.00 0.00 0.00 51 1019.5
20260901042404 60 32 0.0 0.0 0.00 0.00 0.00 50 1019.5
20260901041904 60 32 0.0 0.0 0.00 0.00 0.00 49 1019.4
20260901041404 61 32 0.0 0.0 0.00 0.00 0.00 50 1019.4
20260901040905 61 32 0.0 0.0 0.00 0.00 0.00 49 1019.3
20260901040404 61 32 0.0 0.0 0.00 0.00 0.00 49 1019.3
20260901035904 61 32 0.0 0.0 0.00 0.00 0.00 49 1019.3
20260901035404 61 32 0.0 0.0 0.00 0.00 0.00 48 1019.2
20260901034904 62 32 0.0 0.0 0.00 0.00 0.00 49 1019.3
20260901033404 62 32 0.0 0.0 0.00 0.00 0.00 47 1019.2
20260901032904 62 32 0.0 0.0 0.00 0.00 0.00 47 1019.1
20260901032404 62 32 0.0 0.0 0.00 0.00 0.00 46 1019.1
20260901031904 62 32 0.0 0.0 0.00 0.00 0.00 45 1019.0
20260901030905 63 32 0.0 0.0 0.00 0.00 0.00 44 1018.9
20260901030404 63 32 0.0 0.0 0.00 0.00 0.00 45 1018.8
20260901025904 63 32 0.0 0.0 0.00 0.00 0.00 43 1018.8
20260901025404 64 32 0.0 0.0 0.00 0.00 0.00 44 1018.6
20260901024904 64 32 0.0 0.0 0.00 0.00 0.00 44 1018.6
20260901024404 64 32 0.0 0.0 0.00 0.00 0.00 42 1018.6
20260901023904 64 32 0.0 0.0 0.00 0.00 0.00 43 1018.6
20260901023406 65 32 0.0 0.0 0.00 0.00 0.00 42 1018.5
20260901022904 66 32 0.0 0.0 0.00 0.00 0.00 40 1018.5
20260901022404 67 32 0.0 0.0 0.00 0.00 0.00 40 1018.4
20260901021904 67 32 0.0 0.0 0.00 0.00 0.00 40 1018.4
20260901021404 68 32 0.0 0.0 0.00 0.00 0.00 37 1018.3
20260901020904 68 32 0.0 0.0 0.00 0.00 0.00 38 1018.2
20260901020404 68 32 0.0 0.0 0.00 0.00 0.00 37 1018.0
20260901015904 69 32 0.0 0.0 0.00 0.00 0.00 33 1018.1
20260901015404 69 32 0.0 0.0 0.00 0.00 0.00 32 1018.0
20260901014904 70 32 0.0 0.0 0.00 0.00 0.00 34 1018.1
20260901014404 70 32 0.0 0.0 0.00 0.00 0.00 33 1017.9
20260901013904 71 32 0.0 0.0 0.00 0.00 0.00 34 1017.9
20260901013404 71 32 0.0 0.0 0.00 0.00 0.00 33 1017.8
20260901012904 72 32 0.0 0.0 0.00 0.00 0.00 33 1017.9
20260901012404 72 32 0.0 1.0 0.00 0.00 0.00 33 1017.9
20260901011904 73 225 0.0 0.0 0.00 0.00 0.00 31 1018.0
20260901011404 73 225 0.0 0.0 0.00 0.00 0.00 30 1018.0
20260901010904 74 225 0.0 0.0 0.00 0.00 0.00 30 1017.9
20260901010404 74 225 0.0 0.0 0.00 0.00 0.00 29 1018.0
20260901005904 75 225 0.0 0.0 0.00 0.00 0.00 27 1018.0
20260901005404 76 225 0.0 0.0 0.00 0.00 0.00 27 1018.1
20260901004904 76 225 0.0 0.0 0.00 0.00 0.00 27 1018.1
20260901003905 77 225 0.0 0.0 0.00 0.00 0.00 25 1018.1
20260901003404 78 225 0.0 0.0 0.00 0.00 0.00 19 1018.0
20260901002904 78 225 0.0 0.0 0.00 0.00 0.00 20 1018.1
20260901002404 78 225 0.0 0.0 0.00 0.00 0.00 14 1018.1
20260901001904 78 225 0.0 0.0 0.00 0.00 0.00 15 1018.1
20260901001404 78 225 0.0 2.0 0.00 0.00 0.00 14 1018.0
20260901000904 79 226 1.0 3.0 0.00 0.00 0.00 13 1018.0
20260901000405 79 221 0.0 3.0 0.00 0.00 0.00 13 1018.1
20260831235904 80 231 0.0 3.0 0.00 0.00 0.00 13 1018.1
20260831235404 80 227 1.0 3.0 0.00 0.00 0.00 12 1018.1
20260831234904 80 233 1.0 3.0 0.00 0.00 0.00 12 1018.0
20260831233904 80 225 3.0 6.0 0.00 0.00 0.00 11 1018.0
20260831232904 81 223 1.0 5.0 0.00 0.00 0.00 12 1018.0
20260831232404 81 228 2.0 5.0 0.00 0.00 0.00 11 1018.1
20260831231904 81 214 1.0 8.0 0.00 0.00 0.00 13 1018.0
20260831231404 81 219 1.0 3.0 0.00 0.00 0.00 13 1018.0
20260831230904 81 231 3.0 3.0 0.00 0.00 0.00 12 1018.1
20260831230404 81 224 3.0 6.0 0.00 0.00 0.00 13 1018.1
20260831225904 80 228 4.0 7.0 0.00 0.00 0.00 12 1018.2
20260831225404 80 213 2.0 5.0 0.00 0.00 0.00 12 1018.2
20260831224904 80 221 2.0 5.0 0.00 0.00 0.00 13 1018.3
20260831224404 80 226 5.0 8.0 0.00 0.00 0.00 12 1018.3
20260831223904 80 230 3.0 7.0 0.00 0.00 0.00 12 1018.3
20260831223404 79 227 0.0 3.0 0.00 0.00 0.00 13 1018.2
20260831222904 79 159 0.0 3.0 0.00 0.00 0.00 11 1018.3
20260831222404 79 153 1.0 5.0 0.00 0.00 0.00 12 1018.4
20260831221904 79 134 2.0 3.0 0.00 0.00 0.00 12 1018.4
20260831221404 80 234 1.0 5.0 0.00 0.00 0.00 10 1018.4
20260831220904 79 283 1.0 5.0 0.00 0.00 0.00 11 1018.4
20260831220404 79 92 2.0 6.0 0.00 0.00 0.00 11 1018.5
20260831215904 80 238 1.0 5.0 0.00 0.00 0.00 10 1018.6
20260831215404 80 233 1.0 5.0 0.00 0.00 0.00 10 1018.7
20260831214904 80 220 1.0 6.0 0.00 0.00 0.00 10 1018.6
20260831213904 80 210 0.0 3.0 0.00 0.00 0.00 11 1018.7
20260831213404 80 226 5.0 9.0 0.00 0.00 0.00 12 1018.7
20260831212904 80 223 1.0 7.0 0.00 0.00 0.00 10 1018.7
20260831212404 80 228 3.0 8.0 0.00 0.00 0.00 11 1018.8
20260831211904 80 220 1.0 5.0 0.00 0.00 0.00 9 1018.8
20260831210904 80 228 2.0 6.0 0.00 0.00 0.00 10 1019.0
20260831210404 80 240 3.0 10.0 0.00 0.00 0.00 9 1019.1
20260831205904 80 228 4.0 10.0 0.00 0.00 0.00 11 1019.2
20260831204904 80 235 3.0 10.0 0.00 0.00 0.00 10 1019.3
20260831204404 79 221 4.0 7.0 0.00 0.00 0.00 10 1019.3
20260831203904 79 222 3.0 6.0 0.00 0.00 0.00 11 1019.4
20260831202904 78 225 0.0 5.0 0.00 0.00 0.00 11 1019.5
20260831202404 78 225 1.0 9.0 0.00 0.00 0.00 12 1019.7
20260831201904 77 38 0.0 2.0 0.00 0.00 0.00 10 1019.7
20260831201404 77 37 2.0 5.0 0.00 0.00 0.00 11 1019.8
20260831200904 77 51 1.0 3.0 0.00 0.00 0.00 14 1019.8
20260831195904 76 37 1.0 3.0 0.00 0.00 0.00 11 1019.9
20260831195404 76 40 1.0 3.0 0.00 0.00 0.00 12 1019.9
20260831194904 76 115 1.0 6.0 0.00 0.00 0.00 14 1020.0
20260831194404 76 34 2.0 8.0 0.00 0.00 0.00 12 1020.2
20260831193904 76 22 1.0 2.0 0.00 0.00 0.00 12 1020.2
20260831193404 76 145 1.0 3.0 0.00 0.00 0.00 15 1020.2
20260831192404 75 119 2.0 6.0 0.00 0.00 0.00 15 1020.4
20260831191904 75 40 0.0 6.0 0.00 0.00 0.00 16 1020.5
20260831191404 74 30 1.0 5.0 0.00 0.00 0.00 14 1020.6
20260831190904 74 38 0.0 3.0 0.00 0.00 0.00 15 1020.7
20260831185904 73 39 0.0 2.0 0.00 0.00 0.00 15 1020.9
20260831185404 73 39 1.0 3.0 0.00 0.00 0.00 15 1020.9
20260831184904 73 38 1.0 3.0 0.00 0.00 0.00 17 1021.0
20260831184404 73 37 1.0 3.0 0.00 0.00 0.00 16 1021.0
20260831183904 72 35 0.0 6.0 0.00 0.00 0.00 15 1021.1
20260831183404 72 34 1.0 5.0 0.00 0.00 0.00 17 1021.3
20260831182904 72 31 0.0 2.0 0.00 0.00 0.00 16 1021.4
20260831182404 71 31 1.0 2.0 0.00 0.00 0.00 17 1021.4
20260831181404 71 31 0.0 2.0 0.00 0.00 0.00 18 1021.5
20260831180404 70 31 1.0 5.0 0.00 0.00 0.00 16 1021.7
20260831175904 69 31 1.0 3.0 0.00 0.00 0.00 18 1021.7
20260831175404 68 30 1.0 5.0 0.00 0.00 0.00 20 1021.7
20260831174904 67 31 1.0 3.0 0.00 0.00 0.00 22 1021.8
20260831174404 66 28 0.0 1.0 0.00 0.00 0.00 28 1021.8
20260831173404 64 340 0.0 2.0 0.00 0.00 0.00 30 1021.9
20260831172904 64 355 1.0 2.0 0.00 0.00 0.00 27 1022.0
20260831172404 63 284 0.0 0.0 0.00 0.00 0.00 29 1022.1
20260831171905 63 300 0.0 0.0 0.00 0.00 0.00 28 1022.2
20260831171404 62 300 0.0 0.0 0.00 0.00 0.00 31 1022.2
20260831170404 61 299 0.0 0.0 0.00 0.00 0.00 32 1022.2
20260831165904 60 299 0.0 0.0 0.00 0.00 0.00 34 1022.3
20260831165404 59 299 0.0 0.0 0.00 0.00 0.00 34 1022.3
20260831164903 59 299 0.0 0.0 0.00 0.00 0.00 34 1022.4
20260831164404 58 299 0.0 0.0 0.00 0.00 0.00 36 1022.5
20260831163904 57 299 0.0 0.0 0.00 0.00 0.00 39 1022.6
20260831162904 56 349 0.0 0.0 0.00 0.00 0.00 42 1022.7
20260831162404 55 349 0.0 0.0 0.00 0.00 0.00 41 1022.8
20260831161904 54 350 0.0 0.0 0.00 0.00 0.00 43 1022.7
20260831161404 54 5 0.0 0.0 0.00 0.00 0.00 45 1022.7
20260831160904 53 5 0.0 0.0 0.00 0.00 0.00 45 1022.8
20260831160404 52 358 0.0 0.0 0.00 0.00 0.00 46 1022.9
20260831155404 51 264 0.0 0.0 0.00 0.00 0.00 49 1022.9
20260831153904 48 192 0.0 0.0 0.00 0.00 0.00 55 1022.9
20260831153404 46 207 0.0 0.0 0.00 0.00 0.00 60 1022.9
20260831152904 45 207 0.0 0.0 0.00 0.00 0.00 64 1023.0
20260831152404 44 207 0.0 0.0 0.00 0.00 0.00 64 1023.0
20260831151904 43 207 0.0 0.0 0.00 0.00 0.00 67 1023.0
20260831151404 42 207 0.0 0.0 0.00 0.00 0.00 71 1023.1
20260831150904 41 207 0.0 0.0 0.00 0.00 0.00 71 1023.1
20260831150404 40 207 0.0 0.0 0.00 0.00 0.00 73 1023.2
20260831145904 39 207 0.0 0.0 0.00 0.00 0.00 74 1023.2
20260831145404 38 207 0.0 0.0 0.00 0.00 0.00 74 1023.2
20260831144404 37 207 0.0 0.0 0.00 0.00 0.00 75 1023.1
20260831143904 36 207 0.0 0.0 0.00 0.00 0.00 75 1023.2
20260831143404 36 207 0.0 0.0 0.00 0.00 0.00 75 1023.3
20260831142904 35 207 0.0 0.0 0.00 0.00 0.00 75 1023.3
20260831142404 35 207 0.0 0.0 0.00 0.00 0.00 75 1023.3
20260831141404 34 207 0.0 0.0 0.00 0.00 0.00 75 1023.2
20260831140904 34 207 0.0 0.0 0.00 0.00 0.00 75 1023.2
20260831140404 33 207 0.0 0.0 0.00 0.00 0.00 74 1023.2
20260831135904 33 207 0.0 0.0 0.00 0.00 0.00 74 1023.2
20260831135404 33 207 0.0 0.0 0.00 0.00 0.00 74 1023.2
20260831134904 32 207 0.0 0.0 0.00 0.00 0.00 74 1023.2
20260831133904 32 207 0.0 0.0 0.00 0.00 0.00 73 1023.1
20260831133404 32 207 0.0 0.0 0.00 0.00 0.00 73 1023.0
20260831132904 32 208 0.0 0.0 0.00 0.00 0.00 73 1022.9
20260831132404 32 233 0.0 0.0 0.00 0.00 0.00 73 1022.9
20260831131904 32 233 0.0 0.0 0.00 0.00 0.00 72 1022.9
20260831131404 32 233 0.0 0.0 0.00 0.00 0.00 72 1022.8
20260831130904 32 233 0.0 0.0 0.00 0.00 0.00 72 1022.8
20260831130404 32 233 0.0 0.0 0.00 0.00 0.00 72 1022.8
20260831125904 32 233 0.0 0.0 0.00 0.00 0.00 72 1022.7
20260831125404 32 233 0.0 0.0 0.00 0.00 0.00 72 1022.6
20260831124904 32 233 0.0 0.0 0.00 0.00 0.00 72 1022.6
20260831124404 32 233 0.0 0.0 0.00 0.00 0.00 72 1022.6
20260831123904 33 233 0.0 0.0 0.00 0.00 0.00 71 1022.6
20260831123404 33 233 0.0 0.0 0.00 0.00 0.00 71 1022.6
20260831122404 33 233 0.0 0.0 0.00 0.00 0.00 71 1022.5
20260831121904 33 233 0.0 0.0 0.00 0.00 0.00 71 1022.5
20260831121405 33 233 0.0 0.0 0.00 0.00 0.00 71 1022.5
20260831120904 33 233 0.0 0.0 0.00 0.00 0.00 71 1022.4
20260831120404 33 233 0.0 0.0 0.00 0.00 0.00 71 1022.4
20260831115904 33 233 0.0 0.0 0.00 0.00 0.00 71 1022.4
20260831115404 33 233 0.0 0.0 0.00 0.00 0.00 71 1022.4
20260831114904 33 233 0.0 0.0 0.00 0.00 0.00 70 1022.4
20260831114404 33 233 0.0 0.0 0.00 0.00 0.00 70 1022.4
20260831113904 34 233 0.0 0.0 0.00 0.00 0.00 70 1022.3
20260831112904 34 233 0.0 0.0 0.00 0.00 0.00 70 1022.3
20260831112404 34 233 0.0 0.0 0.00 0.00 0.00 70 1022.2
20260831111904 34 233 0.0 0.0 0.00 0.00 0.00 70 1022.2
20260831111404 34 233 0.0 0.0 0.00 0.00 0.00 70 1022.1
20260831110904 34 233 0.0 0.0 0.00 0.00 0.00 70 1022.1
20260831110404 34 233 0.0 0.0 0.00 0.00 0.00 69 1022.1
20260831105904 34 233 0.0 0.0 0.00 0.00 0.00 69 1022.1
20260831105404 34 233 0.0 0.0 0.00 0.00 0.00 69 1022.0
20260831104904 34 233 0.0 0.0 0.00 0.00 0.00 69 1022.0
20260831102904 35 233 0.0 0.0 0.00 0.00 0.00 69 1022.0
20260831102404 35 233 0.0 0.0 0.00 0.00 0.00 69 1022.0
20260831101905 35 233 0.0 0.0 0.00 0.00 0.00 68 1022.0
20260831101404 35 233 0.0 0.0 0.00 0.00 0.00 68 1022.0
20260831100904 35 233 0.0 0.0 0.00 0.00 0.00 68 1022.0
20260831100404 35 233 0.0 0.0 0.00 0.00 0.00 68 1021.9
20260831095904 35 233 0.0 0.0 0.00 0.00 0.00 68 1022.0
20260831095404 35 233 0.0 0.0 0.00 0.00 0.00 68 1021.9
20260831094404 35 233 0.0 0.0 0.00 0.00 0.00 68 1021.9
20260831093904 35 233 0.0 0.0 0.00 0.00 0.00 68 1021.9
20260831093406 35 233 0.0 0.0 0.00 0.00 0.00 68 1021.9
20260831092404 36 233 0.0 0.0 0.00 0.00 0.00 67 1021.9
20260831091404 36 233 0.0 0.0 0.00 0.00 0.00 67 1021.8
20260831090904 36 233 0.0 0.0 0.00 0.00 0.00 67 1021.8
20260831090404 36 233 0.0 0.0 0.00 0.00 0.00 67 1022.0
20260831085404 37 233 0.0 0.0 0.00 0.00 0.00 67 1021.9
20260831084904 37 233 0.0 0.0 0.00 0.00 0.00 67 1021.9
20260831084404 37 233 0.0 0.0 0.00 0.00 0.00 67 1021.9
20260831083404 37 233 0.0 0.0 0.00 0.00 0.00 66 1021.9
20260831082904 37 233 0.0 0.0 0.00 0.00 0.00 66 1021.9
20260831082404 37 233 0.0 0.0 0.00 0.00 0.00 66 1021.9
20260831081904 37 233 0.0 0.0 0.00 0.00 0.00 66 1021.8
20260831080904 38 233 0.0 0.0 0.00 0.00 0.00 65 1021.9
20260831080404 38 233 0.0 0.0 0.00 0.00 0.00 65 1021.8
20260831075404 38 233 0.0 0.0 0.00 0.00 0.00 65 1021.8
20260831074904 38 233 0.0 0.0 0.00 0.00 0.00 65 1021.8
20260831074404 38 233 0.0 0.0 0.00 0.00 0.00 64 1021.8
20260831073904 39 233 0.0 0.0 0.00 0.00 0.00 64 1021.9
20260831073404 39 233 0.0 0.0 0.00 0.00 0.00 64 1021.9
20260831072904 39 233 0.0 0.0 0.00 0.00 0.00 64 1021.8
20260831071404 39 233 0.0 0.0 0.00 0.00 0.00 62 1021.8
20260831070404 40 233 0.0 0.0 0.00 0.00 0.00 62 1021.6
20260831065904 40 233 0.0 0.0 0.00 0.00 0.00 62 1021.6